(704) Interamnia
ephemeris date magn radius delta ra dec elong phase
Today18 Oct 202512.73.531 AU4.476 AU12h35m-18°34'16.2°4.5°
Opposition1 May 202611.53.469 AU2.509 AU14h02m-34°52'159.0°6.0°
(704) Interamnia - 2025-10-18
astro.vanbuitenen.nl


 
-1 year
-1 month
-1 day
Now
+1 day
+1 month
+1 year

The interactive orbit chart above shows the body's path through the solar system and its position at the given date. Green and blue lines are shown perpendicular to the ecliptic plane: Green if the path is above the ecliptic plane, blue if it is below. (Left-click and drag to rotate the view; Right-click and drag to move the view; Use scroll wheel to zoom in our out.)

The orbital elements of Interamnia are:

            e (Eccentricity)                : 0.1554096
            a (Semimajor axis)              : 3.0558370
            i (Inclination)                 : 17.31555
            Ω (Longitude of ascending node) : 280.16780
            ω (Argument of perihelion)      : 94.12537
            M (Mean anomaly)                : 147.27677
            Epoch                           : 2025 May 05

            L (Longitude of perihelion)     : 194.48828
            B (Latitude of perihelion)      : 17.26927
            P (Orbital period in years)     : 5.34            
        

The light curve chart below shows the estimated development of the minor planet's magnitude.


The all-sky chart below shows the path of the minor planet over the same period as the light curve. The current position is marked yellow.





The following chart shows the path of the minor planet in the next few days. The field of view is optimized for (~10x50) binoculars and finderscopes.




Ephemerides:
Date       Time       RA (2000)    DEC (2000)    delta   radius  elong  phase   PA    magn
2025-10-18 00:00 UT   12 35 15.3   -18 34 35     4.476    3.531   16.2    4.5   238   12.7 
2025-10-18 03:40 UT   12 35 26.7   -18 35 51     4.476    3.531   16.3    4.5   238   12.7 
2025-10-19 00:00 UT   12 36 30.0   -18 42 50     4.474    3.531   16.6    4.6   240   12.7 
2025-10-20 00:00 UT   12 37 44.7   -18 51 05     4.471    3.531   17.0    4.7   242   12.7 
2025-10-21 00:00 UT   12 38 59.3   -18 59 21     4.468    3.531   17.4    4.8   243   12.7 
2025-10-22 00:00 UT   12 40 13.9   -19 07 37     4.465    3.531   17.8    5.0   245   12.7 
2025-10-23 00:00 UT   12 41 28.4   -19 15 55     4.462    3.531   18.3    5.1   247   12.7 
2025-10-24 00:00 UT   12 42 42.9   -19 24 12     4.458    3.531   18.7    5.2   248   12.7 
2025-10-25 00:00 UT   12 43 57.4   -19 32 30     4.455    3.531   19.2    5.3   250   12.7 
2025-10-26 00:00 UT   12 45 11.8   -19 40 49     4.451    3.531   19.7    5.4   251   12.8 
2025-10-27 00:00 UT   12 46 26.1   -19 49 08     4.447    3.531   20.1    5.6   252   12.8 
2025-10-28 00:00 UT   12 47 40.4   -19 57 27     4.443    3.531   20.6    5.7   253   12.8 
2025-10-29 00:00 UT   12 48 54.7   -20 05 47     4.439    3.531   21.1    5.8   255   12.8 
2025-10-30 00:00 UT   12 50 08.9   -20 14 06     4.435    3.531   21.7    6.0   256   12.8 
2025-10-31 00:00 UT   12 51 23.0   -20 22 27     4.430    3.531   22.2    6.1   257   12.8 
2025-11-01 00:00 UT   12 52 37.0   -20 30 47     4.425    3.531   22.7    6.2   258   12.8 
2025-11-02 00:00 UT   12 53 50.9   -20 39 08     4.421    3.531   23.3    6.4   259   12.8 
2025-11-03 00:00 UT   12 55 04.8   -20 47 28     4.416    3.531   23.8    6.5   260   12.8 
2025-11-04 00:00 UT   12 56 18.6   -20 55 49     4.410    3.531   24.4    6.7   261   12.8 
2025-11-05 00:00 UT   12 57 32.3   -21 04 10     4.405    3.531   24.9    6.8   262   12.8 
2025-11-06 00:00 UT   12 58 45.9   -21 12 31     4.400    3.531   25.5    6.9   262   12.8 
2025-11-07 00:00 UT   12 59 59.4   -21 20 53     4.394    3.531   26.1    7.1   263   12.8 
2025-11-08 00:00 UT   13 01 12.9   -21 29 14     4.388    3.531   26.6    7.2   264   12.8 
2025-11-09 00:00 UT   13 02 26.2   -21 37 35     4.382    3.531   27.2    7.4   265   12.8 
2025-11-10 00:00 UT   13 03 39.4   -21 45 56     4.376    3.530   27.8    7.5   265   12.8 
2025-11-11 00:00 UT   13 04 52.5   -21 54 17     4.370    3.530   28.4    7.7   266   12.8 
2025-11-12 00:00 UT   13 06 05.5   -22 02 38     4.363    3.530   29.0    7.8   267   12.8 
2025-11-13 00:00 UT   13 07 18.4   -22 10 59     4.357    3.530   29.6    8.0   267   12.8 


    Terminology:
            
    delta:  distance between minor planet and earth in AU
    radius: distance between minor planet and sun in AU
    magn:   magnitude (brightness) estimate    
    ra:     right ascension in hours (24h = 360deg)
    dec:    declination in degrees
    elong:  elongation in degrees (angle sun-earth-minor planet)    
    phase:  phase angle in degrees (angle sun-minor planet-earth)        
    AU:     Astronomical Unit (mean distance between earth and sun: 149597870.7 km
    

Orbital elements provided by the MPC (Minor Planet Center).
Calculations by a modified version of AAPlus, a C# implementation of the AA+ project by PJ Naughter from the algorithms presented in the book "Astronomical Algorithms" by Jean Meeus.
NGC2000 dso catalog and star labels from VizieR as provided by the Strasbourg astronomical Data Center.
Tycho2 catalog from the ESO archive.